Torna al catalogo

VENUS

AttivoScienzaSSO
NORAD 42901·PAYLOAD·🇮🇱 Israel

Lanciato Aug 2, 2017 da Guiana Space Centre

Loading…

Prossimi Passaggi (prossime 24 ore)

TLE

AggiornatoSource: Space-Track

Epoca: Sep 14, 2026, 12:24 UTC

1 42901U 17044B   26257.51714719  .00003707  00000-0  19891-3 0  9997
2 42901  97.2648 290.2679 0004752  63.7451 296.4270 15.15526584494484

Traccia VENUS in tempo reale con AllMySat

Download on the App Store